Las Vegas, NV

3:03 PM PST on February 23, 2017 (GMT -0800)
North Las Vegas

Weather History for KVGT - April, 2014

Change the Weather History Date:

Wednesday, April 2, 2014

  Actual Average Record
Temperature  
Mean Temperature 50 °F 63 °F  
Max Temperature 57 °F 74 °F 89 °F (2011)
Min Temperature 42 °F 51 °F 42 °F (2014)
Degree Days  
Heating Degree Days 14 4  
Month to date heating degree days 8  
Since 1 July heating degree days 1984  
Cooling Degree Days 0 2  
Month to date cooling degree days 4  
Year to date cooling degree days 26  
Moisture  
Dew Point 29 °F    
Average Humidity 45    
Maximum Humidity 70    
Minimum Humidity 31    
Precipitation  
Precipitation 0.00 in 0.02 in 0.71 in (2004)
Month to date precipitation 0.03  
Year to date precipitation 2.18  
Sea Level Pressure  
Sea Level Pressure 29.86 in    
Wind  
Wind Speed 10 mph (NW)    
Max Wind Speed 28 mph    
Max Gust Speed 36 mph    
Visibility 10 miles    
Events Rain    
T = Trace of Precipitation, MM = Missing Value Source: NWS Daily Summary

Daily Weather History Graph

Daily Weather History Graph

Search for Another Location

Airport or City:

Trip Planner

Search our weather history database for the weather conditions in past years. The results will help you decide how hot, cold, wet, or windy it might be!

Date:

Astronomy

Apr. 02, 2014 Rise Set
Actual Time 6:25 AM PDT 7:03 PM PDT
Civil Twilight 5:59 AM PDT 7:29 PM PDT
Nautical Twilight 5:29 AM PDT 8:00 PM PDT
Astronomical Twilight 4:57 AM PDT 8:31 PM PDT
Moon 8:17 AM PDT (4/2) 10:25 PM PDT (4/2)
Length of Visible Light 13h 30m
Length of Day
12h 38m
Waxing Crescent, 11% of the Moon is Illuminated
Apr 2
Waxing Crescent
Apr 7
First Quarter
Apr 15
Full
Apr 22
Last Quarter
Apr 28
New

Hourly Weather History & Observations

Time (PDT) Temp. Windchill Dew Point Humidity Pressure Visibility Wind Dir Wind Speed Gust Speed Precip Events Conditions
12:53 AM 52.0 °F - 24.1 °F 34% 29.77 in 10.0 mi SW 15.0 mph - N/A   Clear
1:53 AM 52.0 °F - 23.0 °F 32% 29.77 in 10.0 mi South 8.1 mph - N/A   Clear
2:53 AM 51.1 °F - 24.1 °F 35% 29.75 in 10.0 mi SW 11.5 mph - N/A   Clear
3:53 AM 48.9 °F - 21.9 °F 35% 29.76 in 10.0 mi West 5.8 mph - N/A   Clear
5:53 AM 46.0 °F - 27.0 °F 47% 29.78 in 10.0 mi Calm Calm - N/A   Clear
6:53 AM 46.9 °F - 28.0 °F 48% 29.80 in 10.0 mi North 6.9 mph - N/A   Mostly Cloudy
7:53 AM 48.9 °F - 26.1 °F 41% 29.81 in 10.0 mi NNW 8.1 mph - N/A   Overcast
8:53 AM 51.1 °F - 28.0 °F 41% 29.84 in 10.0 mi NNE 10.4 mph - N/A   Overcast
9:53 AM 53.1 °F - 23.0 °F 31% 29.85 in 10.0 mi NE 9.2 mph - N/A   Overcast
10:53 AM 54.0 °F - 26.1 °F 34% 29.87 in 10.0 mi NNW 13.8 mph 21.9 mph N/A   Overcast
11:53 AM 54.0 °F - 28.0 °F 37% 29.87 in 10.0 mi NNW 16.1 mph 21.9 mph N/A   Mostly Cloudy
12:53 PM 55.0 °F - 30.0 °F 38% 29.87 in 10.0 mi NNW 15.0 mph 24.2 mph N/A   Scattered Clouds
1:53 PM 53.1 °F - 30.9 °F 43% 29.88 in 10.0 mi NNW 15.0 mph - N/A   Mostly Cloudy
2:53 PM 55.4 °F - 26.6 °F 33% 29.81 in 10.0 mi Variable 5.8 mph - N/A   Clear
3:53 PM 55.0 °F - 30.9 °F 40% 29.86 in 10.0 mi NNE 25.3 mph 32.2 mph N/A   Mostly Cloudy
4:37 PM 48.2 °F - 35.6 °F 62% 29.85 in 10.0 mi NW 27.6 mph 35.7 mph 0.00 in Rain Light Rain
4:53 PM 48.9 °F - 37.0 °F 64% 29.90 in 10.0 mi WNW 17.3 mph - 0.00 in Rain Light Rain
5:53 PM 53.1 °F - 32.0 °F 45% 29.90 in 10.0 mi North 4.6 mph - 0.00 in   Clear
6:53 PM 52.0 °F - 32.0 °F 47% 29.91 in 10.0 mi WSW 4.6 mph - N/A   Clear
7:53 PM 51.1 °F - 33.1 °F 50% 29.93 in 10.0 mi SW 3.5 mph - N/A   Partly Cloudy
8:53 PM 50.0 °F - 33.1 °F 52% 29.95 in 10.0 mi SE 3.5 mph - N/A   Clear
9:53 PM 48.9 °F - 33.1 °F 54% 29.97 in 10.0 mi North 3.5 mph - N/A   Clear
10:53 PM 46.9 °F - 33.1 °F 59% 29.99 in 10.0 mi NNE 3.5 mph - N/A   Clear
11:53 PM 42.1 °F 39.2 °F 33.1 °F 70% 30.01 in 10.0 mi North 4.6 mph - N/A   Clear